Location: Esterri de Aneo
(42.6284°N, 1.1223°E)
Time: 17:41:20
(UTC+00:00)

ARIANE 6 FM1 Upper Stage - Visible Passes

Search period start: 14 February 2026 00:00
Search period end: 24 February 2026 00:00
Orbit: 522 x 609 km, 62.0° (Epoch: 13 February)

Date Brightness Start Highest point End Pass type
(mag) Time Alt. Az. Time Alt. Az. Time Alt. Az.
14 Feb 3.8 19:19:02 10° NNW 19:21:31 28° N 19:21:31 28° N visible
15 Feb 3.1 19:18:53 10° NNW 19:22:03 44° NNE 19:22:03 44° NNE visible
16 Feb 2.4 19:18:47 10° NW 19:22:43 75° NE 19:22:43 75° NE visible
17 Feb 2.6 19:18:45 10° NW 19:22:42 72° SW 19:23:33 51° SSE visible
18 Feb 3.4 19:18:48 10° NW 19:22:36 47° WSW 19:24:37 24° S visible
19 Feb 4.3 19:18:57 10° WNW 19:22:28 31° WSW 19:25:59 10° S visible
20 Feb 5.0 19:19:17 10° WNW 19:22:17 21° WSW 19:25:18 10° SSW visible
21 Feb 5.5 19:19:58 10° W 19:22:04 14° WSW 19:24:11 10° SSW visible
